contact:dominique.lefevre@mio.osupytheas.fr, maurice.libes@osupytheas.fr, didier.mallarino@osupytheas.fr
Project:EMSO http://www.emso-fr.org/EMSO-France
Depth: 2436.0 m
Title:EMSO Ligure Ouest : Data MII capteur AQUADOPP
Date,Latitude,Longitude,X_East,Y_North,Z_Up,Amplitude_X,Amplitude_Y,Amplitude_Z,Batterie,SoundSpeed,Heading,Pitch,Roll,Pressure,TIS,Speed,Direction
, degrees North, degrees East, m.s-1, m.s-1,m.s-1, 1, 1, 1, Volt, m.s-1, degree, degree, degree, dbar, degree_C, m.s-1, degree
2019-06-12T00:09:04,42.805,6.029,0.044,-0.005,-0.032,101.0,111.0,99.0,13.4,1505.2,327.0,-0.8,1.9,2470.171,13.29,0.044,96.5
2019-06-12T00:12:05,42.805,6.029,0.055,-0.005,-0.002,103.0,110.0,98.0,13.4,1505.2,325.0,-0.8,1.8,2470.174,13.3,0.055,95.2
2019-06-12T00:15:06,42.805,6.029,0.052,-0.008,-0.003,102.0,108.0,97.0,13.3,1505.3,327.8,-0.7,1.8,2470.149,13.31,0.052,98.7
2019-06-12T00:18:07,42.805,6.029,0.049,0.001,0.001,102.0,108.0,98.0,13.4,1505.3,323.0,-0.8,1.8,2470.143,13.31,0.049,88.8
2019-06-12T00:21:08,42.805,6.029,0.058,-0.012,-0.021,101.0,108.0,98.0,13.3,1505.3,327.0,-0.7,1.9,2470.153,13.31,0.059,101.7
2019-06-12T00:24:09,42.805,6.029,0.064,-0.007,-0.028,102.0,108.0,98.0,13.4,1505.3,324.6,-0.7,1.8,2470.113,13.32,0.064,96.2
2019-06-12T00:27:10,42.805,6.029,0.035,0.001,-0.01,100.0,110.0,98.0,13.4,1505.3,327.6,-0.7,1.8,2470.185,13.32,0.035,88.4
2019-06-12T00:30:11,42.805,6.029,0.048,-0.027,-0.009,102.0,107.0,99.0,13.4,1505.3,325.9,-0.7,1.8,2470.125,13.32,0.055,119.4
2019-06-12T00:33:12,42.805,6.029,0.031,-0.013,-0.021,102.0,110.0,97.0,13.3,1505.3,326.9,-0.7,1.9,2470.168,13.32,0.033,112.7
2019-06-12T00:36:13,42.805,6.029,0.035,-0.003,-0.018,101.0,108.0,98.0,13.3,1505.3,324.4,-0.8,1.9,2470.174,13.32,0.035,94.9
2019-06-12T00:39:14,42.805,6.029,0.056,-0.004,-0.005,101.0,109.0,99.0,13.4,1505.3,323.6,-0.8,1.8,2470.158,13.32,0.056,94.1
2019-06-12T00:42:15,42.805,6.029,0.059,-0.01,0.024,102.0,107.0,97.0,13.4,1505.3,326.0,-0.7,1.9,2470.143,13.32,0.059,99.6
2019-06-12T00:45:16,42.805,6.029,0.081,-0.012,-0.033,100.0,106.0,99.0,13.3,1505.3,327.0,-0.7,1.8,2470.113,13.32,0.081,98.4
2019-06-12T00:48:17,42.805,6.029,0.056,-0.004,-0.017,99.0,106.0,98.0,13.3,1505.3,325.0,-0.7,1.8,2470.155,13.32,0.056,94.1
2019-06-12T00:51:18,42.805,6.029,0.052,-0.007,-0.009,103.0,108.0,99.0,13.4,1505.3,325.9,-0.7,1.8,2470.089,13.32,0.052,97.7
2019-06-12T00:54:19,42.805,6.029,0.043,-0.012,-0.03,103.0,108.0,98.0,13.4,1505.3,323.5,-0.7,1.8,2470.126,13.32,0.044,105.6
2019-06-12T00:57:20,42.805,6.029,0.059,-0.026,0.016,103.0,106.0,98.0,13.4,1505.3,326.1,-0.7,1.9,2470.17,13.32,0.064,113.8
2019-06-12T01:00:21,42.805,6.029,0.048,-0.031,-0.036,102.0,110.0,99.0,13.3,1505.3,327.9,-0.8,1.9,2470.175,13.32,0.057,122.9
2019-06-12T01:03:22,42.805,6.029,0.04,-0.01,-0.042,102.0,108.0,98.0,13.4,1505.3,325.8,-0.7,1.8,2470.149,13.32,0.041,104.0
2019-06-12T01:06:23,42.805,6.029,0.038,-0.012,-0.034,102.0,108.0,98.0,13.4,1505.3,327.7,-0.7,1.8,2470.175,13.32,0.039,107.5
2019-06-12T01:09:24,42.805,6.029,0.066,-0.014,-0.006,102.0,109.0,99.0,13.4,1505.3,324.1,-0.8,1.9,2470.205,13.32,0.067,102.0
2019-06-12T01:12:25,42.805,6.029,0.036,-0.012,0.001,101.0,108.0,99.0,13.4,1505.3,325.9,-0.8,1.8,2470.169,13.32,0.037,108.4
2019-06-12T01:15:26,42.805,6.029,0.019,-0.009,-0.027,102.0,111.0,98.0,13.4,1505.3,326.3,-0.7,1.9,2470.139,13.32,0.021,115.3
2019-06-12T01:18:27,42.805,6.029,0.032,-0.011,-0.017,102.0,108.0,98.0,13.4,1505.3,322.9,-0.8,1.9,2470.135,13.32,0.033,109.0
2019-06-12T01:21:28,42.805,6.029,0.038,-0.008,0.012,102.0,108.0,99.0,13.4,1505.3,325.2,-0.7,1.8,2470.144,13.32,0.038,101.9
2019-06-12T01:24:29,42.805,6.029,0.06,-0.002,-0.029,101.0,108.0,99.0,13.4,1505.3,328.4,-0.7,1.8,2470.152,13.32,0.06,91.9
2019-06-12T01:27:30,42.805,6.029,0.037,-0.011,-0.014,103.0,107.0,99.0,13.4,1505.3,325.1,-0.8,1.8,2470.142,13.32,0.038,106.6
2019-06-12T01:30:31,42.805,6.029,0.065,-0.005,-0.014,102.0,109.0,99.0,13.4,1505.3,326.6,-0.7,1.8,2470.183,13.32,0.065,94.4
2019-06-12T01:33:32,42.805,6.029,0.035,-0.023,-0.026,102.0,111.0,99.0,13.4,1505.3,327.6,-0.7,1.8,2470.165,13.32,0.041,123.3
2019-06-12T01:36:33,42.805,6.029,0.052,-0.012,-0.04,102.0,109.0,99.0,13.3,1505.3,325.0,-0.7,1.9,2470.157,13.32,0.053,103.0
2019-06-12T01:39:34,42.805,6.029,0.055,-0.006,-0.008,102.0,107.0,98.0,13.4,1505.3,327.2,-0.7,1.8,2470.15,13.32,0.055,96.2
2019-06-12T01:42:35,42.805,6.029,0.051,-0.003,-0.024,102.0,106.0,99.0,13.4,1505.3,326.0,-0.7,1.8,2470.139,13.32,0.051,93.4
2019-06-12T01:45:36,42.805,6.029,0.033,-0.013,-0.019,101.0,108.0,99.0,13.4,1505.3,326.1,-0.7,1.8,2470.186,13.32,0.035,111.5
2019-06-12T01:48:37,42.805,6.029,0.055,-0.007,-0.019,102.0,106.0,99.0,13.4,1505.3,328.2,-0.7,1.9,2470.157,13.32,0.055,97.3
2019-06-12T01:51:38,42.805,6.029,0.047,-0.006,-0.001,103.0,108.0,96.0,13.3,1505.3,324.5,-0.7,1.8,2470.171,13.32,0.047,97.3
2019-06-12T01:54:39,42.805,6.029,0.054,-0.008,-0.047,102.0,110.0,98.0,13.4,1505.3,324.5,-0.7,1.8,2470.195,13.32,0.054,98.4
2019-06-12T01:57:40,42.805,6.029,0.035,-0.01,-0.002,101.0,108.0,99.0,13.4,1505.3,324.0,-0.8,1.8,2470.153,13.32,0.036,105.9
2019-06-12T02:00:41,42.805,6.029,0.037,0.003,-0.021,102.0,109.0,99.0,13.3,1505.3,325.5,-0.8,1.9,2470.175,13.32,0.037,85.4
2019-06-12T02:03:42,42.805,6.029,0.062,-0.012,0.011,101.0,109.0,99.0,13.4,1505.3,327.3,-0.7,1.8,2470.221,13.32,0.063,101.0
2019-06-12T02:06:43,42.805,6.029,0.042,-0.014,-0.028,102.0,105.0,98.0,13.3,1505.3,325.6,-0.7,1.9,2470.175,13.32,0.044,108.4
2019-06-12T02:09:44,42.805,6.029,0.041,-0.009,0.002,102.0,110.0,99.0,13.4,1505.3,324.4,-0.7,1.8,2470.183,13.32,0.041,102.4
2019-06-12T02:12:45,42.805,6.029,0.038,-0.015,-0.035,102.0,111.0,98.0,13.3,1505.3,324.5,-0.8,1.8,2470.149,13.32,0.04,111.5
2019-06-12T02:15:46,42.805,6.029,0.047,-0.014,0.003,103.0,105.0,98.0,13.4,1505.3,324.0,-0.7,1.8,2470.177,13.32,0.049,106.6
2019-06-12T02:18:47,42.805,6.029,0.033,-0.013,-0.014,102.0,110.0,99.0,13.4,1505.3,324.4,-0.7,1.8,2470.205,13.32,0.035,111.5
2019-06-12T02:21:48,42.805,6.029,0.053,0.008,-0.008,102.0,109.0,98.0,13.4,1505.3,326.1,-0.7,1.9,2470.143,13.32,0.053,81.4
2019-06-12T02:24:49,42.805,6.029,0.037,0.005,0.015,102.0,108.0,99.0,13.3,1505.3,324.1,-0.7,1.9,2470.185,13.32,0.037,82.3
2019-06-12T02:27:50,42.805,6.029,0.017,-0.002,-0.021,102.0,107.0,98.0,13.4,1505.3,326.6,-0.7,1.9,2470.136,13.32,0.017,96.7
2019-06-12T02:30:51,42.805,6.029,0.06,0.015,-0.004,102.0,111.0,99.0,13.4,1505.3,324.2,-0.7,1.8,2470.225,13.32,0.061,76.0
2019-06-12T02:33:52,42.805,6.029,0.071,-0.012,0.015,102.0,105.0,98.0,13.4,1505.3,327.2,-0.7,1.8,2470.164,13.32,0.072,99.6
2019-06-12T02:36:53,42.805,6.029,0.016,-0.003,-0.006,103.0,109.0,98.0,13.4,1505.3,325.8,-0.8,1.9,2470.139,13.32,0.016,100.6
2019-06-12T02:39:54,42.805,6.029,0.049,-0.018,-0.008,102.0,106.0,99.0,13.3,1505.3,327.5,-0.7,1.8,2470.163,13.32,0.052,110.2
2019-06-12T02:42:55,42.805,6.029,0.07,-0.003,-0.033,102.0,109.0,99.0,13.4,1505.3,327.0,-0.8,1.8,2470.165,13.32,0.07,92.4
2019-06-12T02:45:56,42.805,6.029,0.069,-0.015,-0.011,101.0,106.0,98.0,13.4,1505.3,325.9,-0.7,1.8,2470.157,13.32,0.07,102.3
2019-06-12T02:48:57,42.805,6.029,0.028,-0.002,-0.021,103.0,108.0,99.0,13.4,1505.3,325.7,-0.7,1.9,2470.141,13.32,0.028,94.1
2019-06-12T02:51:58,42.805,6.029,0.063,0.01,0.012,101.0,106.0,98.0,13.4,1505.3,327.3,-0.7,1.9,2470.229,13.32,0.063,81.0
2019-06-12T02:54:59,42.805,6.029,0.057,-0.027,-0.052,102.0,104.0,98.0,13.4,1505.3,322.9,-0.7,1.9,2470.154,13.32,0.063,115.3
2019-06-12T02:58:00,42.805,6.029,0.045,-0.011,-0.033,102.0,105.0,98.0,13.4,1505.3,325.7,-0.7,1.8,2470.161,13.32,0.046,103.7
2019-06-12T03:01:01,42.805,6.029,0.061,0.017,-0.015,102.0,107.0,98.0,13.4,1505.3,325.4,-0.7,1.8,2470.166,13.32,0.063,74.4
2019-06-12T03:04:02,42.805,6.029,0.075,-0.008,-0.027,102.0,105.0,99.0,13.4,1505.3,326.5,-0.7,1.8,2470.156,13.32,0.075,96.1
2019-06-12T03:07:03,42.805,6.029,0.049,-0.007,-0.01,102.0,105.0,99.0,13.4,1505.3,324.1,-0.8,1.8,2470.177,13.32,0.049,98.1
2019-06-12T03:10:04,42.805,6.029,0.05,-0.019,-0.021,102.0,107.0,99.0,13.3,1505.3,326.7,-0.8,1.8,2470.162,13.32,0.053,110.8
2019-06-12T03:13:05,42.805,6.029,0.066,0.0,-0.002,102.0,107.0,98.0,13.4,1505.3,324.8,-0.7,1.9,2470.196,13.32,0.065,90.0
2019-06-12T03:16:06,42.805,6.029,0.058,0.002,-0.006,101.0,107.0,99.0,13.4,1505.3,327.0,-0.8,1.8,2470.157,13.32,0.058,88.0
2019-06-12T03:19:07,42.805,6.029,0.043,-0.015,-0.001,102.0,103.0,98.0,13.4,1505.3,325.5,-0.7,1.9,2470.152,13.32,0.045,109.2
2019-06-12T03:22:08,42.805,6.029,0.065,-0.017,-0.021,100.0,107.0,100.0,13.4,1505.3,324.2,-0.7,1.8,2470.14,13.32,0.067,104.7
2019-06-12T03:25:09,42.805,6.029,0.048,-0.028,-0.014,100.0,107.0,99.0,13.3,1505.3,326.4,-0.7,1.8,2470.186,13.32,0.055,120.3
2019-06-12T03:28:10,42.805,6.029,0.052,-0.006,0.0,102.0,105.0,98.0,13.4,1505.3,325.5,-0.7,1.9,2470.194,13.32,0.052,96.6
2019-06-12T03:31:11,42.805,6.029,0.066,-0.015,-0.021,101.0,105.0,100.0,13.3,1505.3,327.6,-0.7,1.8,2470.177,13.32,0.067,102.8
2019-06-12T03:34:12,42.805,6.029,0.047,-0.012,0.018,101.0,105.0,99.0,13.3,1505.3,326.3,-0.7,1.9,2470.158,13.32,0.048,104.3
2019-06-12T03:37:13,42.805,6.029,0.048,-0.011,-0.046,103.0,105.0,98.0,13.4,1505.3,324.5,-0.8,1.8,2470.149,13.32,0.049,102.9
2019-06-12T03:40:14,42.805,6.029,0.049,-0.002,-0.027,99.0,106.0,98.0,13.3,1505.3,327.6,-0.8,1.8,2470.156,13.32,0.049,92.3
2019-06-12T03:43:15,42.805,6.029,0.066,-0.009,-0.009,101.0,109.0,99.0,13.3,1505.3,324.6,-0.7,1.8,2470.164,13.32,0.066,97.8
2019-06-12T03:46:16,42.805,6.029,0.049,-0.016,-0.018,101.0,105.0,98.0,13.4,1505.3,326.7,-0.7,1.8,2470.148,13.32,0.051,108.1
2019-06-12T03:49:17,42.805,6.029,0.064,-0.013,-0.039,101.0,104.0,98.0,13.4,1505.3,327.6,-0.7,1.8,2470.177,13.32,0.065,101.5
2019-06-12T03:52:18,42.805,6.029,0.038,-0.003,-0.018,103.0,104.0,97.0,13.4,1505.3,325.6,-0.8,1.8,2470.156,13.32,0.038,94.5
2019-06-12T03:55:19,42.805,6.029,0.059,-0.008,-0.012,102.0,107.0,100.0,13.4,1505.3,327.7,-0.7,1.8,2470.176,13.32,0.059,97.7
2019-06-12T03:58:20,42.805,6.029,0.064,-0.008,0.003,101.0,105.0,99.0,13.3,1505.3,324.2,-0.7,1.8,2470.192,13.32,0.064,97.1
2019-06-12T04:01:21,42.805,6.029,0.055,-0.027,-0.03,102.0,104.0,99.0,13.4,1505.3,328.2,-0.8,1.9,2470.198,13.32,0.061,116.1
2019-06-12T04:04:22,42.805,6.029,0.049,-0.014,-0.008,101.0,107.0,98.0,13.4,1505.3,324.7,-0.7,1.9,2470.186,13.32,0.05,105.9
2019-06-12T04:07:23,42.805,6.029,0.055,-0.015,0.0,102.0,104.0,98.0,13.4,1505.3,326.7,-0.7,1.8,2470.168,13.32,0.057,105.3
2019-06-12T04:10:24,42.805,6.029,0.083,-0.003,-0.043,102.0,104.0,97.0,13.4,1505.3,324.8,-0.7,1.8,2470.214,13.32,0.083,92.1
2019-06-12T04:13:25,42.805,6.029,0.087,-0.012,0.0,102.0,108.0,98.0,13.3,1505.3,324.6,-0.7,1.9,2470.167,13.32,0.087,97.8
2019-06-12T04:16:26,42.805,6.029,0.059,-0.004,-0.006,101.0,105.0,98.0,13.4,1505.3,322.8,-0.7,1.8,2470.152,13.32,0.059,93.9
2019-06-12T04:19:27,42.805,6.029,0.06,-0.026,-0.05,101.0,103.0,98.0,13.4,1505.3,326.2,-0.8,1.9,2470.155,13.32,0.065,113.4
2019-06-12T04:22:28,42.805,6.029,0.06,-0.024,-0.037,101.0,104.0,98.0,13.4,1505.3,326.4,-0.7,1.9,2470.134,13.32,0.064,111.8
2019-06-12T04:25:29,42.805,6.029,0.053,-0.011,-0.011,100.0,105.0,99.0,13.3,1505.3,326.2,-0.8,1.8,2470.168,13.32,0.054,101.7
2019-06-12T04:28:30,42.805,6.029,0.048,-0.027,-0.017,102.0,105.0,98.0,13.4,1505.3,323.5,-0.7,1.8,2470.171,13.32,0.055,119.4
2019-06-12T04:31:31,42.805,6.029,0.053,-0.044,-0.007,101.0,105.0,98.0,13.3,1505.3,326.3,-0.8,1.8,2470.151,13.32,0.068,129.7
2019-06-12T04:34:32,42.805,6.029,0.055,-0.002,-0.028,101.0,104.0,99.0,13.4,1505.3,324.5,-0.7,1.8,2470.146,13.32,0.055,92.1
2019-06-12T04:37:33,42.805,6.029,0.059,-0.019,0.005,102.0,105.0,97.0,13.4,1505.3,323.8,-0.8,1.9,2470.15,13.32,0.061,107.8
2019-06-12T04:40:34,42.805,6.029,0.082,-0.017,-0.006,101.0,104.0,98.0,13.4,1505.3,326.6,-0.7,1.9,2470.152,13.32,0.083,101.7
2019-06-12T04:43:35,42.805,6.029,0.054,-0.007,-0.008,102.0,105.0,98.0,13.4,1505.3,324.6,-0.7,1.8,2470.132,13.32,0.054,97.4
2019-06-12T04:46:36,42.805,6.029,0.053,-0.018,0.0,101.0,103.0,99.0,13.4,1505.3,328.4,-0.8,1.8,2470.154,13.32,0.055,108.8
2019-06-12T04:49:37,42.805,6.029,0.036,-0.013,0.008,102.0,106.0,98.0,13.3,1505.3,324.9,-0.7,1.8,2470.143,13.32,0.038,109.9
2019-06-12T04:52:38,42.805,6.029,0.043,-0.001,-0.012,101.0,104.0,97.0,13.3,1505.3,326.1,-0.7,1.9,2470.15,13.32,0.043,91.3
2019-06-12T04:55:39,42.805,6.029,0.046,0.013,-0.024,101.0,105.0,98.0,13.3,1505.3,326.7,-0.7,1.8,2470.141,13.32,0.047,74.2
2019-06-12T04:58:40,42.805,6.029,0.063,-0.015,-0.014,101.0,104.0,97.0,13.4,1505.3,324.5,-0.8,1.8,2470.147,13.32,0.064,103.4
2019-06-12T05:01:41,42.805,6.029,0.059,-0.009,-0.035,101.0,104.0,98.0,13.4,1505.3,327.3,-0.7,1.8,2470.14,13.32,0.059,98.7
2019-06-12T05:04:42,42.805,6.029,0.076,-0.01,0.002,102.0,103.0,99.0,13.3,1505.3,322.7,-0.7,1.8,2470.142,13.32,0.076,97.5
2019-06-12T05:07:43,42.805,6.029,0.067,-0.007,-0.011,101.0,104.0,96.0,13.3,1505.3,326.6,-0.7,1.8,2470.159,13.32,0.067,96.0
2019-06-12T05:10:44,42.805,6.029,0.058,-0.007,0.004,100.0,104.0,99.0,13.4,1505.3,324.6,-0.7,1.8,2470.121,13.32,0.058,96.9
2019-06-12T05:13:45,42.805,6.029,0.051,-0.017,-0.02,102.0,105.0,97.0,13.4,1505.3,323.8,-0.8,1.9,2470.139,13.32,0.053,108.4
2019-06-12T05:16:46,42.805,6.029,0.055,-0.014,-0.012,102.0,104.0,97.0,13.4,1505.3,325.7,-0.7,1.8,2470.106,13.32,0.056,104.3
2019-06-12T05:19:47,42.805,6.029,0.069,-0.036,-0.014,103.0,103.0,98.0,13.4,1505.3,327.8,-0.7,1.9,2470.122,13.32,0.077,117.6
2019-06-12T05:22:48,42.805,6.029,0.055,-0.03,-0.035,102.0,103.0,99.0,13.4,1505.3,324.7,-0.8,1.8,2470.132,13.32,0.062,118.6
2019-06-12T05:25:49,42.805,6.029,0.069,-0.023,-0.022,101.0,104.0,97.0,13.4,1505.3,327.1,-0.7,1.8,2470.157,13.32,0.072,108.4
2019-06-12T05:28:50,42.805,6.029,0.05,-0.029,0.002,102.0,103.0,97.0,13.4,1505.3,327.4,-0.8,1.9,2470.13,13.32,0.057,120.1
2019-06-12T05:31:51,42.805,6.029,0.034,-0.008,-0.016,101.0,104.0,100.0,13.4,1505.3,323.7,-0.7,1.8,2470.134,13.32,0.034,103.2
2019-06-12T05:34:52,42.805,6.029,0.054,-0.01,-0.014,102.0,104.0,98.0,13.3,1505.3,324.1,-0.7,1.8,2470.121,13.32,0.054,100.5
2019-06-12T05:37:53,42.805,6.029,0.062,-0.033,-0.014,102.0,103.0,99.0,13.3,1505.3,327.2,-0.7,1.8,2470.108,13.32,0.07,118.0
2019-06-12T05:40:54,42.805,6.029,0.07,-0.033,0.007,101.0,102.0,98.0,13.3,1505.3,323.2,-0.8,1.8,2470.11,13.32,0.077,115.2
2019-06-12T05:43:55,42.805,6.029,0.057,-0.032,-0.011,101.0,103.0,98.0,13.3,1505.3,326.3,-0.7,1.8,2470.088,13.32,0.065,119.3
2019-06-12T05:46:56,42.805,6.029,0.069,-0.009,0.001,103.0,104.0,98.0,13.4,1505.3,327.7,-0.8,1.9,2470.138,13.32,0.069,97.4
2019-06-12T05:49:57,42.805,6.029,0.048,-0.015,-0.011,101.0,104.0,97.0,13.4,1505.3,326.6,-0.8,1.9,2470.14,13.32,0.05,107.4
2019-06-12T05:52:58,42.805,6.029,0.068,-0.012,-0.032,101.0,104.0,99.0,13.4,1505.3,327.1,-0.7,1.8,2470.089,13.32,0.069,100.0
2019-06-12T05:55:59,42.805,6.029,0.061,-0.004,0.002,101.0,105.0,98.0,13.4,1505.3,324.8,-0.8,1.8,2470.096,13.32,0.061,93.7
2019-06-12T05:59:00,42.805,6.029,0.079,-0.03,-0.016,101.0,102.0,99.0,13.4,1505.3,327.4,-0.7,1.8,2470.052,13.32,0.084,110.8
2019-06-12T06:02:01,42.805,6.029,0.054,-0.028,-0.011,101.0,103.0,99.0,13.3,1505.3,324.7,-0.8,1.9,2470.131,13.32,0.06,117.4
2019-06-12T06:05:02,42.805,6.029,0.055,-0.015,-0.01,102.0,105.0,97.0,13.4,1505.3,325.9,-0.7,1.8,2470.06,13.32,0.057,105.3
2019-06-12T06:08:03,42.805,6.029,0.054,-0.012,-0.009,101.0,104.0,97.0,13.4,1505.3,324.7,-0.7,1.8,2470.096,13.32,0.055,102.5
2019-06-12T06:11:04,42.805,6.029,0.047,0.0,-0.007,101.0,104.0,98.0,13.4,1505.3,325.2,-0.7,1.9,2470.132,13.32,0.047,90.0
2019-06-12T06:14:05,42.805,6.029,0.064,-0.018,-0.024,102.0,105.0,97.0,13.4,1505.3,327.2,-0.7,1.8,2470.092,13.32,0.066,105.7
2019-06-12T06:17:06,42.805,6.029,0.039,-0.024,-0.022,102.0,102.0,98.0,13.4,1505.3,323.6,-0.7,1.8,2470.076,13.32,0.045,121.6
2019-06-12T06:20:07,42.805,6.029,0.032,-0.018,-0.03,101.0,103.0,99.0,13.4,1505.3,324.0,-0.8,1.8,2470.067,13.32,0.036,119.4
2019-06-12T06:23:08,42.805,6.029,0.053,-0.034,-0.03,101.0,104.0,99.0,13.3,1505.3,326.4,-0.8,1.8,2470.054,13.32,0.062,122.7
2019-06-12T06:26:09,42.805,6.029,0.042,-0.041,-0.023,102.0,104.0,99.0,13.4,1505.3,324.5,-0.7,1.8,2470.085,13.32,0.058,134.3
2019-06-12T06:29:10,42.805,6.029,0.049,-0.029,-0.006,101.0,104.0,98.0,13.3,1505.3,325.1,-0.8,1.8,2470.042,13.32,0.056,120.6
2019-06-12T06:32:11,42.805,6.029,0.044,-0.02,-0.012,101.0,105.0,98.0,13.4,1505.3,325.3,-0.7,1.8,2470.118,13.32,0.048,114.4
2019-06-12T06:35:12,42.805,6.029,0.065,-0.001,0.025,100.0,107.0,98.0,13.3,1505.3,324.8,-0.7,1.8,2470.122,13.32,0.065,90.9
2019-06-12T06:38:13,42.805,6.029,0.04,-0.028,-0.044,102.0,104.0,99.0,13.3,1505.3,327.6,-0.8,1.9,2470.044,13.32,0.048,125.0
2019-06-12T06:41:14,42.805,6.029,0.038,-0.019,-0.027,103.0,105.0,97.0,13.4,1505.3,325.6,-0.7,1.8,2470.087,13.32,0.042,116.6
2019-06-12T06:44:15,42.805,6.029,0.042,-0.028,-0.002,102.0,103.0,97.0,13.3,1505.3,325.2,-0.7,1.8,2470.089,13.32,0.05,123.7
2019-06-12T06:47:16,42.805,6.029,0.033,-0.019,-0.043,102.0,105.0,98.0,13.4,1505.3,327.7,-0.7,1.8,2470.102,13.32,0.038,119.9
2019-06-12T06:50:17,42.805,6.029,0.049,-0.011,-0.022,102.0,107.0,97.0,13.3,1505.3,324.2,-0.8,1.8,2470.081,13.32,0.05,102.7
2019-06-12T06:53:18,42.805,6.029,0.076,-0.001,0.018,102.0,104.0,99.0,13.4,1505.3,324.3,-0.7,1.8,2470.052,13.32,0.076,90.8
2019-06-12T06:56:19,42.805,6.029,0.044,-0.005,-0.042,101.0,104.0,98.0,13.4,1505.3,326.0,-0.7,1.9,2470.081,13.32,0.044,96.5
2019-06-12T06:59:20,42.805,6.029,0.025,-0.007,-0.03,101.0,106.0,98.0,13.4,1505.3,322.9,-0.8,1.9,2470.069,13.32,0.025,105.6
2019-06-12T07:02:21,42.805,6.029,0.063,-0.019,-0.015,101.0,104.0,98.0,13.4,1505.3,326.4,-0.7,1.8,2470.013,13.32,0.065,106.8
2019-06-12T07:05:22,42.805,6.029,0.05,-0.019,-0.015,102.0,103.0,98.0,13.4,1505.3,326.6,-0.7,1.8,2470.062,13.32,0.053,110.8
2019-06-12T07:08:23,42.805,6.029,0.057,-0.001,-0.006,101.0,105.0,99.0,13.4,1505.3,323.3,-0.8,1.9,2470.043,13.32,0.057,91.0
2019-06-12T07:11:24,42.805,6.029,0.046,-0.013,0.004,101.0,105.0,98.0,13.4,1505.3,324.5,-0.8,1.8,2470.029,13.32,0.047,105.8
2019-06-12T07:14:25,42.805,6.029,0.065,-0.033,-0.004,101.0,103.0,98.0,13.4,1505.3,323.4,-0.7,1.8,2470.04,13.32,0.072,116.9
2019-06-12T07:17:26,42.805,6.029,0.036,-0.007,-0.016,102.0,104.0,98.0,13.3,1505.3,326.3,-0.7,1.8,2470.052,13.32,0.036,101.0
2019-06-12T07:20:27,42.805,6.029,0.074,-0.012,-0.025,101.0,104.0,98.0,13.3,1505.3,326.3,-0.7,1.8,2470.037,13.32,0.074,99.2
2019-06-12T07:23:28,42.805,6.029,0.02,-0.009,0.007,102.0,106.0,98.0,13.4,1505.3,327.3,-0.7,1.8,2470.088,13.32,0.021,114.2
2019-06-12T07:26:29,42.805,6.029,0.047,0.008,0.002,101.0,107.0,98.0,13.4,1505.3,323.7,-0.7,1.9,2470.034,13.32,0.047,80.3
2019-06-12T07:29:30,42.805,6.029,0.05,-0.01,-0.02,101.0,104.0,99.0,13.4,1505.3,324.5,-0.7,1.9,2470.056,13.32,0.05,101.3
2019-06-12T07:32:31,42.805,6.029,0.036,-0.025,-0.008,103.0,108.0,99.0,13.4,1505.3,324.8,-0.7,1.8,2470.009,13.32,0.043,124.8
2019-06-12T07:35:32,42.805,6.029,0.06,-0.012,-0.008,100.0,105.0,99.0,13.3,1505.3,324.2,-0.7,1.8,2470.04,13.32,0.061,101.3
2019-06-12T07:38:33,42.805,6.029,0.063,0.002,-0.019,101.0,107.0,99.0,13.3,1505.3,326.7,-0.7,1.9,2469.989,13.32,0.063,88.2
2019-06-12T07:41:34,42.805,6.029,0.052,-0.012,-0.001,101.0,106.0,99.0,13.3,1505.3,327.6,-0.7,1.9,2470.055,13.32,0.053,103.0
2019-06-12T07:44:35,42.805,6.029,0.046,-0.008,-0.034,100.0,106.0,99.0,13.4,1505.3,323.4,-0.7,1.8,2470.032,13.32,0.046,99.9
2019-06-12T07:47:36,42.805,6.029,0.041,-0.004,-0.001,101.0,107.0,98.0,13.3,1505.3,326.0,-0.7,1.9,2470.023,13.32,0.041,95.6
2019-06-12T07:50:37,42.805,6.029,0.06,-0.02,0.0,101.0,104.0,98.0,13.4,1505.3,327.6,-0.7,1.8,2470.019,13.32,0.063,108.4
2019-06-12T07:53:38,42.805,6.029,0.048,-0.032,0.035,102.0,106.0,98.0,13.4,1505.3,323.3,-0.8,1.8,2470.049,13.32,0.057,123.7
2019-06-12T07:56:39,42.805,6.029,0.041,0.0,-0.022,102.0,104.0,97.0,13.4,1505.3,326.3,-0.7,1.8,2470.062,13.32,0.041,90.0
2019-06-12T07:59:40,42.805,6.029,0.026,-0.035,-0.013,101.0,102.0,98.0,13.4,1505.3,326.4,-0.8,1.8,2470.019,13.32,0.043,143.4
2019-06-12T08:02:41,42.805,6.029,0.064,-0.028,0.006,101.0,103.0,98.0,13.4,1505.3,324.5,-0.7,1.9,2470.002,13.32,0.069,113.6
2019-06-12T08:05:42,42.805,6.029,0.042,-0.006,-0.011,101.0,104.0,98.0,13.4,1505.3,325.7,-0.7,1.9,2470.018,13.32,0.042,98.1
2019-06-12T08:08:43,42.805,6.029,0.05,-0.007,-0.028,102.0,107.0,98.0,13.4,1505.3,327.0,-0.7,1.8,2470.021,13.32,0.05,98.0
2019-06-12T08:11:44,42.805,6.029,0.033,-0.019,-0.053,101.0,105.0,99.0,13.3,1505.3,326.6,-0.7,1.8,2470.02,13.32,0.038,119.9
2019-06-12T08:14:45,42.805,6.029,0.057,0.003,-0.021,100.0,108.0,99.0,13.3,1505.3,324.1,-0.7,1.8,2470.017,13.32,0.057,87.0
2019-06-12T08:17:46,42.805,6.029,0.028,-0.024,-0.002,100.0,107.0,98.0,13.3,1505.3,328.4,-0.8,1.8,2469.979,13.32,0.036,130.6
2019-06-12T08:20:47,42.805,6.029,0.054,-0.019,-0.016,101.0,107.0,98.0,13.4,1505.3,325.6,-0.7,1.8,2470.048,13.32,0.057,109.4
2019-06-12T08:23:48,42.805,6.029,0.034,-0.017,-0.029,100.0,107.0,98.0,13.4,1505.3,326.6,-0.8,1.8,2470.025,13.32,0.038,116.6
2019-06-12T08:26:49,42.805,6.029,0.058,-0.025,-0.044,101.0,106.0,98.0,13.4,1505.3,324.4,-0.7,1.8,2470.018,13.32,0.063,113.3
2019-06-12T08:29:50,42.805,6.029,0.039,-0.01,-0.009,100.0,107.0,99.0,13.4,1505.3,327.1,-0.8,1.8,2470.009,13.32,0.04,104.4
2019-06-12T08:32:51,42.805,6.029,0.047,-0.003,0.008,100.0,106.0,97.0,13.4,1505.3,326.1,-0.7,1.9,2469.997,13.32,0.047,93.6
2019-06-12T08:35:52,42.805,6.029,0.021,-0.024,-0.061,102.0,105.0,98.0,13.4,1505.3,325.3,-0.7,1.9,2470.002,13.32,0.031,138.8
2019-06-12T08:38:53,42.805,6.029,0.044,-0.006,-0.034,102.0,106.0,98.0,13.4,1505.3,328.2,-0.7,1.9,2470.011,13.32,0.044,97.8
2019-06-12T08:41:54,42.805,6.029,0.065,-0.009,0.018,102.0,107.0,97.0,13.4,1505.3,327.1,-0.7,1.8,2470.01,13.32,0.065,97.9
2019-06-12T08:44:55,42.805,6.029,0.062,-0.02,-0.039,99.0,107.0,98.0,13.3,1505.3,324.9,-0.8,1.8,2469.995,13.32,0.065,107.9
2019-06-12T08:47:56,42.805,6.029,0.056,-0.011,-0.023,101.0,106.0,99.0,13.4,1505.3,324.3,-0.8,1.9,2469.984,13.32,0.057,101.1
2019-06-12T08:50:57,42.805,6.029,0.039,-0.006,-0.006,101.0,107.0,97.0,13.4,1505.3,325.8,-0.7,1.8,2469.976,13.32,0.039,98.7
2019-06-12T08:53:58,42.805,6.029,0.044,-0.022,-0.036,101.0,107.0,98.0,13.3,1505.3,326.4,-0.8,1.8,2470.027,13.32,0.049,116.6
2019-06-12T08:56:59,42.805,6.029,0.06,-0.006,-0.006,101.0,106.0,98.0,13.4,1505.3,323.3,-0.7,1.8,2469.957,13.32,0.06,95.7
2019-06-12T09:00:00,42.805,6.029,0.032,-0.007,-0.027,101.0,108.0,98.0,13.4,1505.3,324.8,-0.7,1.9,2469.981,13.32,0.032,102.3
2019-06-12T09:03:01,42.805,6.029,0.039,0.001,-0.013,101.0,107.0,98.0,13.4,1505.3,324.5,-0.7,1.8,2469.985,13.32,0.039,88.5
2019-06-12T09:06:02,42.805,6.029,0.016,-0.006,-0.034,103.0,109.0,98.0,13.4,1505.3,323.9,-0.7,1.8,2469.98,13.32,0.017,110.6
2019-06-12T09:09:03,42.805,6.029,0.055,-0.004,-0.003,101.0,107.0,98.0,13.3,1505.3,327.6,-0.7,1.9,2469.97,13.32,0.055,94.2
2019-06-12T09:12:04,42.805,6.029,0.065,-0.014,0.008,101.0,107.0,98.0,13.3,1505.3,325.3,-0.7,1.9,2470.004,13.32,0.066,102.2
2019-06-12T09:15:05,42.805,6.029,0.031,-0.009,-0.024,100.0,111.0,98.0,13.4,1505.3,325.7,-0.8,1.8,2470.001,13.32,0.032,106.2
2019-06-12T09:18:06,42.805,6.029,0.04,0.005,-0.041,101.0,111.0,98.0,13.4,1505.3,323.7,-0.8,1.9,2470.02,13.32,0.04,82.9
2019-06-12T09:21:07,42.805,6.029,0.028,0.006,-0.001,101.0,108.0,98.0,13.4,1505.3,326.5,-0.7,1.8,2469.946,13.32,0.028,77.9
2019-06-12T09:24:08,42.805,6.029,0.019,-0.001,-0.017,101.0,108.0,97.0,13.4,1505.3,327.3,-0.7,1.8,2469.952,13.32,0.019,93.0
2019-06-12T09:27:09,42.805,6.029,0.041,-0.01,-0.033,101.0,106.0,98.0,13.4,1505.3,325.7,-0.7,1.9,2469.972,13.32,0.042,103.7
2019-06-12T09:30:10,42.805,6.029,0.062,-0.01,0.001,101.0,108.0,98.0,13.3,1505.3,327.7,-0.7,1.9,2469.98,13.32,0.062,99.2
2019-06-12T09:33:11,42.805,6.029,0.013,-0.003,-0.021,101.0,109.0,98.0,13.4,1505.3,323.3,-0.7,1.8,2470.007,13.32,0.013,103.0
2019-06-12T09:36:12,42.805,6.029,0.048,-0.022,-0.023,101.0,105.0,97.0,13.4,1505.3,326.9,-0.8,1.9,2469.962,13.32,0.052,114.6
2019-06-12T09:39:13,42.805,6.029,0.038,0.0,0.01,101.0,105.0,98.0,13.3,1505.3,326.7,-0.8,1.8,2469.955,13.32,0.038,90.0
2019-06-12T09:42:14,42.805,6.029,0.028,-0.015,0.007,100.0,108.0,97.0,13.4,1505.3,326.0,-0.7,1.8,2469.928,13.32,0.031,118.2